• In Belgium
  • List of Countries
  • For 7 days
  • Water Temperature
  • Satellite Maps
  • Weather Map
  • Weather Widgets
  • user-avatar
    Login

    Hourly Weather Kortrijk

    Today, 21 October, Sunday

    Time Temperature Precipitation Wind Pressure Humidity
    00:00 +10°C° 0 mm 1 mps 769 mmHg 76%
    01:00 +9°C° 0 mm 1 mps 769 mmHg 76%
    02:00 +9°C° 0 mm 1 mps 769 mmHg 76%
    03:00 +9°C° 0 mm 1 mps 769 mmHg 76%
    04:00 +9°C° 0 mm 1 mps 769 mmHg 76%
    05:00 +9°C° 0 mm 1 mps 768 mmHg 77%
    06:00 +9°C° 0 mm 1 mps 768 mmHg 77%
    07:00 +10°C° 0 mm 1 mps 768 mmHg 72%
    08:00 +12°C° 0 mm 1 mps 768 mmHg 68%
    09:00 +13°C° 0 mm 1 mps 768 mmHg 63%
    10:00 +14°C° 0 mm 1 mps 768 mmHg 60%
    11:00 +16°C° 0 mm 1 mps 768 mmHg 56%
    12:00 +18°C° 0 mm 1 mps 768 mmHg 53%
    13:00 +18°C° 0 mm 1 mps 767 mmHg 54%
    14:00 +19°C° 0 mm 1 mps 767 mmHg 55%
    15:00 +19°C° 0 mm 1 mps 767 mmHg 56%
    16:00 +16°C° 0 mm 1 mps 767 mmHg 62%
    17:00 +15°C° 0 mm 1 mps 767 mmHg 68%
    18:00 +13°C° 0 mm 1 mps 767 mmHg 73%
    19:00 +13°C° 0 mm 1 mps 767 mmHg 76%
    20:00 +13°C° 0 mm 1 mps 767 mmHg 78%
    21:00 +12°C° 0 mm 1 mps 767 mmHg 81%
    22:00 +12°C° 0 mm 1 mps 767 mmHg 83%
    23:00 +12°C° 0 mm 1 mps 767 mmHg 85%

    Tomorrow, 22 October, Monday

    Time Temperature Precipitation Wind Pressure Humidity
    00:00 +12°C° 0 mm 2 mps 768 mmHg 87%
    01:00 +13°C° 0.1 mm 2 mps 768 mmHg 88%
    02:00 +12°C° 0.1 mm 3 mps 768 mmHg 89%
    03:00 +12°C° 0.1 mm 4 mps 768 mmHg 91%
    04:00 +12°C° 0.2 mm 5 mps 769 mmHg 89%
    05:00 +13°C° 0.2 mm 6 mps 769 mmHg 87%
    06:00 +12°C° 0.2 mm 7 mps 769 mmHg 86%
    07:00 +12°C° 0.3 mm 7 mps 770 mmHg 84%
    08:00 +12°C° 0.3 mm 7 mps 771 mmHg 82%
    09:00 +11°C° 0.3 mm 6 mps 771 mmHg 79%
    10:00 +13°C° 0 mm 6 mps 772 mmHg 74%
    11:00 +12°C° 0 mm 7 mps 772 mmHg 69%
    12:00 +14°C° 0 mm 7 mps 772 mmHg 64%
    13:00 +14°C° 0 mm 6 mps 773 mmHg 63%
    14:00 +13°C° 0 mm 6 mps 773 mmHg 63%
    15:00 +13°C° 0 mm 6 mps 773 mmHg 62%
    16:00 +12°C° 0 mm 5 mps 773 mmHg 65%
    17:00 +11°C° 0 mm 4 mps 773 mmHg 67%
    18:00 +10°C° 0 mm 4 mps 774 mmHg 70%
    19:00 +9°C° 0 mm 3 mps 774 mmHg 70%
    20:00 +9°C° 0 mm 3 mps 774 mmHg 71%
    21:00 +9°C° 0 mm 2 mps 775 mmHg 71%
    22:00 +8°C° 0 mm 2 mps 774 mmHg 73%
    23:00 +8°C° 0 mm 2 mps 774 mmHg 75%

    Day after tomorrow, 23 October, Tuesday

    Time Temperature Precipitation Wind Pressure Humidity
    00:00 +9°C° 0 mm 1 mps 774 mmHg 76%
    01:00 +7°C° 0 mm 2 mps 774 mmHg 77%
    02:00 +7°C° 0 mm 2 mps 773 mmHg 77%
    03:00 +7°C° 0 mm 3 mps 773 mmHg 78%
    04:00 +7°C° 0 mm 3 mps 773 mmHg 79%
    05:00 +6°C° 0 mm 4 mps 772 mmHg 80%
    06:00 +7°C° 0 mm 4 mps 772 mmHg 81%
    07:00 +8°C° 0 mm 5 mps 772 mmHg 78%
    08:00 +9°C° 0 mm 5 mps 771 mmHg 75%
    09:00 +10°C° 0 mm 6 mps 771 mmHg 71%
    10:00 +11°C° 0 mm 6 mps 771 mmHg 69%
    11:00 +13°C° 0 mm 6 mps 770 mmHg 67%
    12:00 +14°C° 0 mm 6 mps 770 mmHg 65%
    13:00 +14°C° 0 mm 6 mps 769 mmHg 65%
    14:00 +14°C° 0 mm 6 mps 769 mmHg 66%
    15:00 +14°C° 0 mm 6 mps 768 mmHg 66%
    16:00 +13°C° 0 mm 5 mps 768 mmHg 70%
    17:00 +12°C° 0 mm 5 mps 768 mmHg 73%
    18:00 +11°C° 0 mm 4 mps 768 mmHg 77%
    19:00 +12°C° 0 mm 4 mps 768 mmHg 78%
    20:00 +12°C° 0 mm 4 mps 769 mmHg 79%
    21:00 +12°C° 0 mm 4 mps 769 mmHg 80%
    22:00 +12°C° 0 mm 4 mps 769 mmHg 84%
    23:00 +12°C° 0 mm 4 mps 768 mmHg 87%

    24 October, Wednesday

    Time Temperature Precipitation Wind Pressure Humidity
    00:00 +12°C° 0 mm 4 mps 768 mmHg 90%
    01:00 +12°C° 0 mm 4 mps 768 mmHg 91%
    02:00 +12°C° 0 mm 4 mps 768 mmHg 92%
    03:00 +12°C° 0 mm 4 mps 768 mmHg 93%
    04:00 +12°C° 0 mm 4 mps 768 mmHg 92%
    05:00 +13°C° 0 mm 4 mps 768 mmHg 92%
    06:00 +13°C° 0 mm 4 mps 768 mmHg 91%
    07:00 +14°C° 0 mm 4 mps 768 mmHg 89%
    08:00 +15°C° 0 mm 4 mps 768 mmHg 86%
    09:00 +15°C° 0 mm 4 mps 768 mmHg 84%
    10:00 +17°C° 0 mm 4 mps 769 mmHg 82%
    11:00 +17°C° 0 mm 4 mps 769 mmHg 81%
    12:00 +17°C° 0 mm 4 mps 769 mmHg 79%
    13:00 +17°C° 0 mm 4 mps 768 mmHg 79%
    14:00 +17°C° 0 mm 4 mps 768 mmHg 79%
    15:00 +17°C° 0 mm 4 mps 768 mmHg 80%
    16:00 +16°C° 0 mm 3 mps 768 mmHg 84%
    17:00 +16°C° 0 mm 3 mps 768 mmHg 87%
    18:00 +15°C° 0 mm 2 mps 768 mmHg 91%
    19:00 +14°C° 0 mm 2 mps 768 mmHg 92%
    20:00 +14°C° 0 mm 2 mps 768 mmHg 93%
    21:00 +14°C° 0 mm 2 mps 768 mmHg 94%
    22:00 +14°C° 0 mm 2 mps 767 mmHg 93%
    23:00 +14°C° 0 mm 2 mps 767 mmHg 93%

    25 October, Thursday

    Time Temperature Precipitation Wind Pressure Humidity
    00:00 +13°C° 0 mm 3 mps 767 mmHg 93%
    01:00 +13°C° 0 mm 3 mps 767 mmHg 93%
    02:00 +12°C° 0 mm 3 mps 766 mmHg 94%
    03:00 +12°C° 0 mm 3 mps 766 mmHg 94%
    04:00 +11°C° 0 mm 3 mps 765 mmHg 94%
    05:00 +11°C° 0 mm 3 mps 765 mmHg 94%
    06:00 +10°C° 0 mm 3 mps 765 mmHg 93%
    07:00 +11°C° 0 mm 3 mps 765 mmHg 88%
    08:00 +12°C° 0 mm 3 mps 765 mmHg 83%
    09:00 +12°C° 0 mm 3 mps 764 mmHg 77%
    10:00 +13°C° 0 mm 3 mps 764 mmHg 73%
    11:00 +14°C° 0 mm 3 mps 764 mmHg 69%
    12:00 +14°C° 0 mm 3 mps 763 mmHg 65%
    13:00 +14°C° 0 mm 3 mps 763 mmHg 65%
    14:00 +14°C° 0 mm 3 mps 762 mmHg 65%
    15:00 +14°C° 0 mm 3 mps 762 mmHg 65%
    16:00 +14°C° 0 mm 2 mps 762 mmHg 70%
    17:00 +12°C° 0 mm 2 mps 761 mmHg 76%
    18:00 +10°C° 0 mm 2 mps 761 mmHg 82%
    19:00 +9°C° 0 mm 2 mps 761 mmHg 83%
    20:00 +9°C° 0 mm 2 mps 760 mmHg 84%
    21:00 +9°C° 0 mm 2 mps 760 mmHg 85%
    22:00 +8°C° 0 mm 2 mps 759 mmHg 86%
    23:00 +8°C° 0 mm 2 mps 759 mmHg 86%

    26 October, Friday

    Time Temperature Precipitation Wind Pressure Humidity
    00:00 +8°C° 0 mm 2 mps 758 mmHg 87%
    01:00 +8°C° 0 mm 2 mps 758 mmHg 87%
    02:00 +8°C° 0 mm 3 mps 757 mmHg 88%
    03:00 +7°C° 0 mm 3 mps 756 mmHg 88%
    04:00 +8°C° 0 mm 3 mps 756 mmHg 87%
    05:00 +8°C° 0 mm 3 mps 755 mmHg 85%
    06:00 +8°C° 0 mm 2 mps 755 mmHg 84%
    07:00 +9°C° 0.1 mm 2 mps 755 mmHg 83%
    08:00 +10°C° 0.1 mm 2 mps 754 mmHg 81%
    09:00 +12°C° 0.1 mm 2 mps 754 mmHg 80%
    10:00 +12°C° 0.2 mm 2 mps 753 mmHg 79%
    11:00 +11°C° 0.2 mm 3 mps 753 mmHg 78%
    12:00 +12°C° 0.2 mm 3 mps 752 mmHg 78%
    13:00 +11°C° 0.4 mm 3 mps 752 mmHg 80%
    14:00 +10°C° 0.4 mm 3 mps 752 mmHg 83%
    15:00 +10°C° 0.4 mm 3 mps 751 mmHg 85%
    16:00 +10°C° 0.3 mm 3 mps 751 mmHg 87%
    17:00 +9°C° 0.3 mm 3 mps 751 mmHg 88%
    18:00 +9°C° 0.3 mm 3 mps 751 mmHg 90%
    19:00 +8°C° 0.5 mm 4 mps 751 mmHg 89%
    20:00 +8°C° 0.5 mm 4 mps 751 mmHg 89%
    21:00 +8°C° 0.5 mm 4 mps 751 mmHg 88%
    22:00 +8°C° 0.6 mm 4 mps 751 mmHg 87%
    23:00 +8°C° 0.6 mm 4 mps 751 mmHg 86%
    Show more